THOR ABLESTAR DEB, 262

Orbit data source: Space-Track

THOR ABLESTAR DEB, 262 is space debris in LEO originally from a launch on Thu, 29 Jun 1961 UTC launched from the Air Force Eastern Test Range (AFETR). Debris objects in space refer to the collection of defunct objects orbiting the Earth. Examples of debris include non-operational satellites, rocket bodies, and fragments generated from explosions, collisions, or faulty payload assembly.

Loading next visibility...
Identifier
262, 1961-015CJ
Orbit
LEO
Country
Flag of USUS
Related business
Manufacturer
Unknown
Mission
Spacecraft
Bus & Motor
Unknown
Mass
Unknown
Launch date (UTC)
1961-06-29 (65 years ago)
Launch vehicle
Unknown
Launch site
Air Force Eastern Test Range (AFETR)
Object type
Payload
Rocket body
Debris
Shape & HBR
Unknown shape, 0.2 m
Radar Cross Section
Small (<0.1 m²)

Expand to show TLE details & history
Last TLE update: 10 hours ago

TLE from 10 hours ago
0 THOR ABLESTAR DEB
1 00262U 61015CJ  26123.56309046  .00001367  00000-0  29985-3 0  9993
2 00262  66.4606 188.8496 0050609 123.3662 237.2308 14.60142023352005
Epoch: 2026-05-03T13:30Z
TLE epoch observation values (Epoch: 2026-05-03T13:30:51.015Z)
Latitude
-0.00005°
Longitude
124.67217°
Altitude
714.332 km
Speed
7.489 km/s
True Right ascension
12h 35m 23s
True Declination
0° 00' 00"
Sunlit
Object was in full shadow at epoch
Visualization orbit readout
Latitude
Unknown
Longitude
Unknown
Altitude
Unknown
Speed
Unknown
Apparent Right ascension
Unknown
Apparent Declination
Unknown
Sunlit
N/A
Visualization observer readout
Local Sidereal Time
07:07:02
Azimuth
Unknown
Elevation
Unknown
Doppler factor
Unknown
Orbital elements
Apogee altitude
726.873 km
Perigee altitude
655.319 km
Semi-major axis
7,069.233 km
Eccentricity
0.00506
Inclination
66.4606°
RAAN
188.8496°
Arg. of periapsis
123.3662°
True anomaly
236.74483°
Mean anomaly
237.2308°
Eccentric anomaly
236.98765°
Mean motion
3.65161 °/min
Orbital period
98.59 mins
BSTAR
0.00029985
Loading maneuver chart data...
Computing Atmospheric mass density...
Loading historical data...
Loading historical data...
Loading historical data...
Loading historical data...
Loading historical data...
Loading historical data...
Loading historical data...

Documentation

Showing up to 5 results
|